星链-31330 (STARLINK-31330 )

导读

STARLINK-31330是美国SpaceX公司星链星座的一员,于北京时间2024年2月10日发射入轨。作为第二代低轨互联网星座的V2 Mini卫星,它运行在近地轨道,配备百Gbps激光星间链路与增强型相控阵天线,可提供高速低时延的卫星互联网服务,助力星链实现全球覆盖,强化极地网络覆盖与手机直连通信能力,支撑星链星座持续组网扩容。

Basic Information
目录编号:
58951
目录名称:
STARLINK-31330
国际标识:
2024-027W
轨道中心:
EARTH
卫星名称:
星链-31330
卫星全名:
星链-31330 (STARLINK-31330 )
卫星状态:
在轨 (已飞行937 天)
发射日期:
2024-02-10 UTC
国别 :
美国 (US)
星等 :
--
Orbit Information
数据来源 国际轨道数据
星历时间: 2026-09-02T21:55:04+0800
1天前
查看轨道信息
半长轴: 6840.871km
偏心率: 0.0001655
轨道倾角: 53.159°
近地点辐角 136.056°
升交点赤经 201.434°
平近点角 224.058°
近地点: 461.601km
远地点: 463.867km
周期: 93.848分钟
每日圈数: 15.343899
Detailed Information
固有亮度:
5
最大亮度:
0.3
卫星平台:
Starlink v2.0 mini
覆盖范围:
全球
运营商:
太空探索技术公司
运营商所在国:
美国
制造商(研发单位):
太空探索技术公司
制造商所在国:
美国
使用方式:
暂无
Satellite Introduction
星链(Starlink)计划是由太空探索技术公司(SpaceX)提出的一个巨型低轨卫星互联网星座项目,计划在2019年至2024年间在太空搭建由约1.2万颗卫星组成的“星链”网络,其中1584颗将部署在地球上空550千米处的近地轨道,并从2020年开始工作。该卫星仍在工作。
2D Orbit Map
3D Orbit Map
Orbit Altitude Analysis Chart
Orbit Inclination Analysis Chart
Orbit Comprehensive Analysis Chart
View Comprehensive Chart
Conjunction Data List
Event ID Objects TCA Miss Dist (km) Collision Risk Probability Collision Risk Index (CRI) Action
CDM_260827-190405-895106-636322
2026-08-27T
19:04:32+0000
0.542 km
远距离
1.085964E-4 高风险 0.76
CDM_260905-150605-895106-689521
2026-09-05T
15:06:42+0000
0.573 km
远距离
9.784889E-5 中风险 0.75
CDM_260905-145305-895106-636321
2026-09-05T
14:53:49+0000
0.748 km
远距离
4.274718E-5 中风险 0.68
CDM_260904-205505-895106-636321
2026-09-04T
20:55:12+0000
0.989 km
远距离
1.690017E-5 中风险 0.6
CDM_260904-192105-895106-636322
2026-09-04T
19:21:25+0000
1.098 km
极远距离
1.177953E-5 中风险 0.56
CDM_260905-132005-895106-636321
2026-09-05T
13:20:02+0000
1.294 km
极远距离
6.68834E-6 低风险 0.52
CDM_260905-042305-825005-895121
2026-09-05T
04:23:14+0000
1.678 km
极远距离
3.903793E-6 低风险 0.47
CDM_260905-133205-895106-689521
2026-09-05T
13:32:54+0000
1.776 km
极远距离
2.593127E-6 低风险 0.43
CDM_260904-222905-895106-636321
2026-09-04T
22:29:00+0000
2.583 km
极远距离
1.088314E-6 低风险 0.36
CDM_260904-174705-895106-636322
2026-09-04T
17:47:37+0000
2.664 km
极远距离
1.038222E-6 低风险 0.35